| time (UTC) | temp F | wind direction | speed MPH | gust MPH | rain 1hr in | rain 24hr in | rain mn in | humidity % | barometer mb |
| 20260502130203 | 44 | 294 | 2.0 | 8.0 | 0.00 | 0.03 | 0.00 | 65 | 1012.6 |
| 20260502123203 | 41 | 302 | 3.0 | 9.0 | 0.00 | 0.04 | 0.00 | 68 | 1012.6 |
| 20260502113704 | 39 | 293 | 2.0 | 6.0 | 0.00 | 0.05 | 0.00 | 74 | 1012.3 |
| 20260502113203 | 39 | 274 | 1.0 | 8.0 | 0.00 | 0.05 | 0.00 | 76 | 1012.4 |
| 20260502110703 | 38 | 285 | 2.0 | 6.0 | 0.00 | 0.06 | 0.00 | 78 | 1012.3 |
| 20260502070200 | 37 | 260 | 1.0 | 6.0 | 0.00 | 0.10 | 0.00 | 82 | 1010.9 |
| 20260502063701 | 37 | 278 | 2.0 | 3.0 | 0.00 | 0.10 | 0.00 | 82 | 1010.8 |
| 20260502063201 | 37 | 268 | 1.0 | 3.0 | 0.00 | 0.10 | 0.00 | 82 | 1010.7 |
| 20260502053201 | 37 | 273 | 2.0 | 7.0 | 0.00 | 0.13 | 0.00 | 81 | 1010.6 |
| 20260502050200 | 37 | 250 | 2.0 | 6.0 | 0.00 | 0.13 | 0.00 | 80 | 1010.6 |
| 20260502043701 | 38 | 267 | 2.0 | 6.0 | 0.00 | 0.14 | 0.00 | 78 | 1010.8 |
| 20260502040701 | 39 | 270 | 2.0 | 7.0 | 0.00 | 0.15 | 0.00 | 78 | 1010.8 |
| 20260502040200 | 39 | 255 | 1.0 | 10.0 | 0.00 | 0.16 | 0.00 | 77 | 1010.8 |
| 20260502033201 | 39 | 308 | 3.0 | 9.0 | 0.00 | 0.18 | 0.16 | 78 | 1010.8 |
| 20260502030201 | 39 | 263 | 3.0 | 10.0 | 0.00 | 0.20 | 0.16 | 77 | 1010.8 |
| 20260502023701 | 40 | 298 | 1.0 | 9.0 | 0.00 | 0.21 | 0.16 | 77 | 1010.7 |
| 20260502020202 | 40 | 292 | 3.0 | 7.0 | 0.00 | 0.25 | 0.16 | 76 | 1010.7 |
| 20260502013701 | 41 | 269 | 2.0 | 6.0 | 0.00 | 0.28 | 0.16 | 75 | 1010.5 |
| 20260502010201 | 41 | 278 | 2.0 | 7.0 | 0.00 | 0.32 | 0.16 | 73 | 1010.3 |
| 20260502003701 | 41 | 245 | 1.0 | 3.0 | 0.00 | 0.36 | 0.16 | 73 | 1009.9 |
| 20260502003201 | 41 | 280 | 2.0 | 8.0 | 0.00 | 0.37 | 0.16 | 73 | 1009.8 |
| 20260502000702 | 41 | 265 | 3.0 | 6.0 | 0.00 | 0.43 | 0.16 | 72 | 1009.5 |
| 20260501233702 | 42 | 255 | 2.0 | 7.0 | 0.00 | 0.47 | 0.16 | 70 | 1009.2 |
| 20260501230701 | 43 | 259 | 3.0 | 9.0 | 0.00 | 0.51 | 0.16 | 70 | 1008.9 |
| 20260501230202 | 43 | 275 | 3.0 | 12.0 | 0.00 | 0.52 | 0.16 | 70 | 1008.9 |
| 20260501223201 | 44 | 250 | 5.0 | 12.0 | 0.00 | 0.54 | 0.16 | 69 | 1009.0 |
| 20260501220702 | 45 | 296 | 6.0 | 10.0 | 0.00 | 0.54 | 0.16 | 66 | 1008.8 |
| 20260501213702 | 46 | 292 | 5.0 | 13.0 | 0.00 | 0.54 | 0.16 | 64 | 1008.3 |
| 20260501213201 | 46 | 285 | 5.0 | 14.0 | 0.00 | 0.54 | 0.16 | 65 | 1008.2 |
| 20260501210702 | 49 | 259 | 5.0 | 13.0 | 0.00 | 0.54 | 0.16 | 62 | 1007.9 |
| 20260501210202 | 48 | 279 | 3.0 | 14.0 | 0.00 | 0.54 | 0.16 | 64 | 1008.0 |
| 20260501203202 | 48 | 261 | 5.0 | 15.0 | 0.00 | 0.54 | 0.16 | 63 | 1007.9 |
| 20260501200702 | 49 | 251 | 3.0 | 12.0 | 0.00 | 0.54 | 0.16 | 64 | 1007.9 |
| 20260501193202 | 49 | 235 | 3.0 | 12.0 | 0.00 | 0.54 | 0.16 | 67 | 1007.8 |
| 20260501190702 | 48 | 277 | 4.0 | 12.0 | 0.00 | 0.54 | 0.16 | 71 | 1007.9 |
| 20260501190202 | 47 | 264 | 2.0 | 12.0 | 0.00 | 0.54 | 0.16 | 71 | 1007.9 |
| 20260501183203 | 45 | 311 | 5.0 | 13.0 | 0.00 | 0.55 | 0.16 | 74 | 1007.9 |
| 20260501180202 | 45 | 304 | 5.0 | 10.0 | 0.00 | 0.57 | 0.16 | 78 | 1007.9 |
| 20260501170203 | 41 | 265 | 3.0 | 10.0 | 0.01 | 0.57 | 0.16 | 87 | 1007.9 |
| 20260501163702 | 40 | 277 | 5.0 | 12.0 | 0.01 | 0.57 | 0.16 | 88 | 1008.2 |
| 20260501160702 | 39 | 298 | 3.0 | 8.0 | 0.01 | 0.57 | 0.15 | 92 | 1008.4 |
| 20260501160202 | 38 | 279 | 3.0 | 9.0 | 0.01 | 0.57 | 0.15 | 91 | 1008.4 |
| 20260501153703 | 37 | 282 | 3.0 | 9.0 | 0.02 | 0.57 | 0.15 | 90 | 1008.5 |
| 20260501150703 | 38 | 281 | 3.0 | 9.0 | 0.01 | 0.56 | 0.14 | 91 | 1008.5 |
| 20260501150203 | 38 | 271 | 3.0 | 13.0 | 0.01 | 0.56 | 0.14 | 91 | 1008.5 |